This demonstration page uses our WeatherBlox Daily Observations layout. Learn more.

Left ArrowRight Arrow

Hourly Observations for July 26, 2020

Temp ( °F °C ) Dew Point ( °F °C ) Humidity (%) Winds ( mph kmh ) Pressure ( in mb ) Visibility ( mi km ) Precip ( " mm )
12:51 am 00:51 Clear 77 25 65 18.3 66 66 WNW 3 6 29.83 1010 10 16.0934 0 0
1:51 am 01:51 Clear 76 24.4 65 18.3 69 69 Calm 29.83 1010 10 16.0934 0 0
2:51 am 02:51 Clear 76 24.4 65 18.3 69 69 Calm 29.82 1010 10 16.0934 0 0
3:51 am 03:51 Clear 73 22.8 66 18.9 79 79 ESE 3 6 29.83 1010 10 16.0934 0 0
4:51 am 04:51 Clear 72 22.2 65 18.3 79 79 Calm 29.84 1011 10 16.0934 0 0
5:51 am 05:51 Sunny 71 21.7 66 18.9 84 84 Calm 29.85 1011 10 16.0934 0 0
6:51 am 06:51 Sunny 74 23.3 65 18.3 74 74 Calm 29.87 1011 10 16.0934 0 0
7:51 am 07:51 Sunny 77 25 64 17.8 64 64 Calm 29.88 1012 10 16.0934 0 0
8:51 am 08:51 Sunny 83 28.3 63 17.2 51 51 Calm 29.88 1012 10 16.0934 0 0
9:51 am 09:51 Sunny 87 30.6 64 17.8 46 46 SSE 10 17 29.87 1011 10 16.0934 0 0
10:51 am 10:51 Sunny 91 32.8 64 17.8 41 41 undefined N/A 29.86 1011 10 16.0934 0 0
11:51 am 11:51 Sunny 93 33.9 62 16.7 36 36 undefined N/A 29.84 1010 10 16.0934 0 0
12:51 pm 12:51 Sunny 93 33.9 61 16.1 34 34 VRB 5 7 29.81 1010 10 16.0934 0 0
1:51 pm 13:51 Sunny 96 35.6 60 15.6 30 30 SSW 10 17 29.79 1009 10 16.0934 0 0
2:51 pm 14:51 Sunny 98 36.7 59 15 27 27 SE 6 9 29.76 1008 10 16.0934 0 0
3:51 pm 15:51 Mostly Sunny 92 33.3 62 16.7 37 37 NE 31 50 29.77 1008 10 16.0934 0 0
4:51 pm 16:51 Sunny 93 33.9 58 14.4 31 31 E 22 35 29.76 1008 10 16.0934 0 0
5:51 pm 17:51 Sunny 90 32.2 59 15 35 35 E 22 35 29.76 1008 10 16.0934 0 0
6:51 pm 18:51 Sunny 88 31.1 59 15 38 38 E 16 26 29.78 1009 10 16.0934 0 0
7:51 pm 19:51 Partly Cloudy 87 30.6 61 16.1 42 42 ENE 15 24 29.82 1010 10 16.0934 0 0
8:51 pm 20:51 Clear 87 30.6 60 15.6 40 40 E 10 17 29.84 1011 10 16.0934 0 0
9:51 pm 21:51 Clear 85 29.4 61 16.1 45 45 SE 12 19 29.85 1011 10 16.0934 0 0
10:51 pm 22:51 Clear 84 28.9 63 17.2 49 49 ESE 5 7 29.85 1011 10 16.0934 0 0
11:51 pm 23:51 Clear 82 27.8 64 17.8 55 55 ESE 7 11 29.84 1010 10 16.0934 0 0

Powered by AerisWeather